Location: Lafig�re
(44.4503°N, 4.0357°E)
Time: 08:37:00
(UTC+00:00)

deb Explorer IX - Pass Details

Date: 27 January 2021
Orbit: 537 x 1103 km, 38.8° (Epoch: 23 February)

Event Time Altitude Azimuth Distance (km) Brightness Sun altitude
Rises 18:40:50 0° 264° (W) 3,709 ? -20.4°
Reaches altitude 10° 18:43:44 10° 259° (W) 2,679 ? -20.9°
Maximum altitude 18:49:52 48° 187° (S) 1,096 ? -22.0°
Enters shadow 18:51:49 35° 137° (SE) 1,308 ? -22.4°
